If you wish to contribute or participate in the discussions about articles you are invited to join SKYbrary as a registered user

 Actions

Zorg en Hoop Airport

From SKYbrary Wiki

SMZO
Airport
ICAO: SMZO – IATA: ORG
Summary
Name Zorg en Hoop Airport
Region South America and Caribbean
Territory Suriname SR.gif
Location Paramaribo, Paramaribo
Serving Paramaribo
Elevation 3.048 m
10 ft3.048 m
Coordinates 5° 48' 39.98" N, 55° 11' 26.86" W
Runways
Designator Length Width Surface ROPS


METAR
Observation SMZO 260000Z 06007KT 9999 FEW010 26/23 Q1011 NOSIG
Station PARAMARIBO
Date/Time 26 February 2020 00:00:00
Wind direction 60°
Wind speed 07 kts
Lowest cloud amount few clouds
Temperature 26°C
Dew point 23°C
Humidity 83%
QNH 1011 hPa
Weather condition n/a

Zorg en Hoop Airport is an airport serving general aviation in the city of Paramaribo, Suriname.

Climatology

Tropical rainforest climate (Köppen climate classification Af)

Maps

Terrain

Loading map...

Airport Layout

Loading map...


Accidents & Serious Incidents at or in vicinity of SMZO

None on SKYbrary